Time,TemperatureF,DewpointF,PressureIn,WindDirection,WindDirectionDegrees,WindSpeedMPH,WindSpeedGustMPH,Humidity,HourlyPrecipIn,Conditions,Clouds,dailyrainin,SoftwareType,DateUTC
2013-01-23 00:05:00,11.4,-9.9,30.15,West,274,5.0,7.0,37,0.00,,,0.00,Wunderground v.1.13,2013-01-23 05:05:00,
2013-01-23 00:10:00,11.2,-9.5,30.15,West,277,4.0,4.0,38,0.00,,,0.00,Wunderground v.1.13,2013-01-23 05:10:00,
2013-01-23 00:15:00,11.2,-9.5,30.15,West,265,4.0,4.0,38,0.00,,,0.00,Wunderground v.1.13,2013-01-23 05:15:00,
2013-01-23 00:20:00,11.2,-9.0,30.15,NW,306,3.0,3.0,39,0.00,,,0.00,Wunderground v.1.13,2013-01-23 05:20:00,
2013-01-23 00:25:00,11.2,-8.5,30.15,West,267,3.0,3.0,40,0.00,,,0.00,Wunderground v.1.13,2013-01-23 05:25:00,
2013-01-23 00:30:00,11.2,-8.5,30.15,West,274,3.0,5.0,40,0.00,,,0.00,Wunderground v.1.13,2013-01-23 05:30:00,
2013-01-23 00:40:00,11.2,-8.5,30.15,WSW,256,5.0,7.0,40,0.00,,,0.00,Wunderground v.1.13,2013-01-23 05:40:00,
2013-01-23 00:45:00,11.2,-9.0,30.15,West,264,5.0,7.0,39,0.00,,,0.00,Wunderground v.1.13,2013-01-23 05:45:00,
2013-01-23 00:50:00,11.2,-8.5,30.15,WSW,257,5.0,5.0,40,0.00,,,0.00,Wunderground v.1.13,2013-01-23 05:50:00,
2013-01-23 01:00:00,11.1,-8.6,30.15,WNW,289,5.0,5.0,40,0.00,,,0.00,Wunderground v.1.13,2013-01-23 06:00:00,
2013-01-23 01:10:00,11.1,-8.1,30.15,West,278,5.0,7.0,41,0.00,,,0.00,Wunderground v.1.13,2013-01-23 06:10:00,
2013-01-23 01:15:00,11.1,-8.1,30.15,SW,232,5.0,6.0,41,0.00,,,0.00,Wunderground v.1.13,2013-01-23 06:15:00,
2013-01-23 01:20:00,10.9,-7.7,30.14,West,271,3.0,3.0,42,0.00,,,0.00,Wunderground v.1.13,2013-01-23 06:20:00,
2013-01-23 01:25:00,10.9,-7.3,30.14,WSW,258,3.0,3.0,43,0.00,,,0.00,Wunderground v.1.13,2013-01-23 06:25:00,
2013-01-23 01:35:00,10.7,-7.0,30.15,West,264,3.0,3.0,44,0.00,,,0.00,Wunderground v.1.13,2013-01-23 06:35:00,
2013-01-23 01:40:00,10.7,-7.0,30.15,West,260,3.0,4.0,44,0.00,,,0.00,Wunderground v.1.13,2013-01-23 06:40:00,
2013-01-23 01:50:00,10.7,-7.0,30.15,West,272,3.0,6.0,44,0.00,,,0.00,Wunderground v.1.13,2013-01-23 06:50:00,
2013-01-23 02:00:00,10.7,-7.0,30.15,West,277,4.0,4.0,44,0.00,,,0.00,Wunderground v.1.13,2013-01-23 07:00:00,
2013-01-23 02:05:00,10.7,-6.5,30.16,West,267,4.0,4.0,45,0.00,,,0.00,Wunderground v.1.13,2013-01-23 07:05:00,
2013-01-23 02:10:00,10.7,-6.5,30.16,West,274,4.0,4.0,45,0.00,,,0.00,Wunderground v.1.13,2013-01-23 07:10:00,
2013-01-23 02:15:00,10.7,-7.0,30.16,West,265,5.0,5.0,44,0.00,,,0.00,Wunderground v.1.13,2013-01-23 07:15:00,
2013-01-23 02:25:00,10.5,-6.7,30.16,West,277,4.0,4.0,45,0.00,,,0.00,Wunderground v.1.13,2013-01-23 07:25:00,
2013-01-23 02:30:00,10.7,-6.5,30.16,West,281,4.0,7.0,45,0.00,,,0.00,Wunderground v.1.13,2013-01-23 07:30:00,
2013-01-23 02:40:00,10.7,-6.1,30.16,West,265,5.0,7.0,46,0.00,,,0.00,Wunderground v.1.13,2013-01-23 07:40:00,
2013-01-23 02:45:00,10.7,-6.5,30.16,WNW,288,4.0,4.0,45,0.00,,,0.00,Wunderground v.1.13,2013-01-23 07:45:00,
2013-01-23 02:50:00,10.5,-6.7,30.17,West,277,4.0,7.0,45,0.00,,,0.00,Wunderground v.1.13,2013-01-23 07:50:00,
2013-01-23 03:00:00,10.5,-6.2,30.17,West,280,3.0,3.0,46,0.00,,,0.00,Wunderground v.1.13,2013-01-23 08:00:00,
2013-01-23 03:05:00,10.5,-6.7,30.17,West,278,3.0,3.0,45,0.00,,,0.00,Wunderground v.1.13,2013-01-23 08:05:00,
2013-01-23 03:10:00,10.4,-6.3,30.17,West,277,3.0,3.0,46,0.00,,,0.00,Wunderground v.1.13,2013-01-23 08:10:00,
2013-01-23 03:20:00,10.4,-5.9,30.17,WSW,256,3.0,7.0,47,0.00,,,0.00,Wunderground v.1.13,2013-01-23 08:20:00,
2013-01-23 03:25:00,10.4,-5.9,30.17,WNW,284,3.0,3.0,47,0.00,,,0.00,Wunderground v.1.13,2013-01-23 08:25:00,
2013-01-23 03:30:00,10.2,-6.1,30.16,WNW,284,3.0,5.0,47,0.00,,,0.00,Wunderground v.1.13,2013-01-23 08:30:00,
2013-01-23 03:40:00,10.0,-6.3,30.16,West,271,2.0,2.0,47,0.00,,,0.00,Wunderground v.1.13,2013-01-23 08:40:00,
2013-01-23 03:45:00,10.0,-5.8,30.16,WNW,288,2.0,5.0,48,0.00,,,0.00,Wunderground v.1.13,2013-01-23 08:45:00,
2013-01-23 03:55:00,10.2,-6.1,30.16,WNW,282,4.0,4.0,47,0.00,,,0.00,Wunderground v.1.13,2013-01-23 08:55:00,
2013-01-23 04:00:00,10.2,-5.6,30.16,West,275,4.0,4.0,48,0.00,,,0.00,Wunderground v.1.13,2013-01-23 09:00:00,
2013-01-23 04:05:00,10.0,-6.3,30.16,WNW,282,3.0,3.0,47,0.00,,,0.00,Wunderground v.1.13,2013-01-23 09:05:00,
2013-01-23 04:15:00,10.0,-5.8,30.16,West,264,3.0,4.0,48,0.00,,,0.00,Wunderground v.1.13,2013-01-23 09:15:00,
2013-01-23 04:20:00,10.0,-5.8,30.16,WNW,298,2.0,2.0,48,0.00,,,0.00,Wunderground v.1.13,2013-01-23 09:20:00,
2013-01-23 04:25:00,10.0,-5.8,30.16,WNW,298,2.0,2.0,48,0.00,,,0.00,Wunderground v.1.13,2013-01-23 09:25:00,
2013-01-23 04:35:00,9.9,-5.9,30.16,WNW,294,2.0,2.0,48,0.00,,,0.00,Wunderground v.1.13,2013-01-23 09:35:00,
2013-01-23 04:40:00,9.9,-5.9,30.16,WNW,294,2.0,2.0,48,0.00,,,0.00,Wunderground v.1.13,2013-01-23 09:40:00,
2013-01-23 04:45:00,9.9,-5.9,30.16,WNW,291,2.0,2.0,48,0.00,,,0.00,Wunderground v.1.13,2013-01-23 09:45:00,
2013-01-23 04:55:00,9.7,-6.1,30.16,West,277,2.0,2.0,48,0.00,,,0.00,Wunderground v.1.13,2013-01-23 09:55:00,
2013-01-23 05:00:00,9.9,-5.9,30.17,NNW,340,2.0,2.0,48,0.00,,,0.00,Wunderground v.1.13,2013-01-23 10:00:00,
2013-01-23 05:10:00,9.7,-6.1,30.17,WSW,258,2.0,3.0,48,0.00,,,0.00,Wunderground v.1.13,2013-01-23 10:10:00,
2013-01-23 05:15:00,9.7,-6.1,30.17,West,281,3.0,3.0,48,0.00,,,0.00,Wunderground v.1.13,2013-01-23 10:15:00,
2013-01-23 05:20:00,9.7,-6.1,30.17,West,277,2.0,7.0,48,0.00,,,0.00,Wunderground v.1.13,2013-01-23 10:20:00,
2013-01-23 05:30:00,9.7,-6.1,30.17,WNW,282,3.0,3.0,48,0.00,,,0.00,Wunderground v.1.13,2013-01-23 10:30:00,
2013-01-23 05:35:00,9.9,-5.9,30.17,WNW,288,3.0,3.0,48,0.00,,,0.00,Wunderground v.1.13,2013-01-23 10:35:00,
2013-01-23 05:40:00,9.7,-6.1,30.17,West,277,2.0,3.0,48,0.00,,,0.00,Wunderground v.1.13,2013-01-23 10:40:00,
2013-01-23 05:45:00,9.7,-6.1,30.17,WNW,285,2.0,5.0,48,0.00,,,0.00,Wunderground v.1.13,2013-01-23 10:45:00,
2013-01-23 05:55:00,9.7,-6.1,30.17,WNW,291,3.0,3.0,48,0.00,,,0.00,Wunderground v.1.13,2013-01-23 10:55:00,
2013-01-23 06:00:00,9.7,-6.1,30.17,West,274,3.0,7.0,48,0.00,,,0.00,Wunderground v.1.13,2013-01-23 11:00:00,
2013-01-23 06:05:00,9.7,-6.5,30.18,WSW,258,4.0,4.0,47,0.00,,,0.00,Wunderground v.1.13,2013-01-23 11:05:00,
2013-01-23 06:15:00,9.7,-6.5,30.18,WSW,256,4.0,6.0,47,0.00,,,0.00,Wunderground v.1.13,2013-01-23 11:15:00,
2013-01-23 06:20:00,9.7,-6.1,30.18,West,265,4.0,5.0,48,0.00,,,0.00,Wunderground v.1.13,2013-01-23 11:20:00,
2013-01-23 06:25:00,9.7,-6.1,30.18,WNW,292,4.0,5.0,48,0.00,,,0.00,Wunderground v.1.13,2013-01-23 11:25:00,
2013-01-23 06:35:00,9.7,-6.1,30.18,West,274,4.0,4.0,48,0.00,,,0.00,Wunderground v.1.13,2013-01-23 11:35:00,
2013-01-23 06:40:00,9.7,-6.1,30.18,West,280,4.0,4.0,48,0.00,,,0.00,Wunderground v.1.13,2013-01-23 11:40:00,
2013-01-23 06:50:00,9.5,-5.9,30.18,WSW,253,2.0,2.0,49,0.00,,,0.00,Wunderground v.1.13,2013-01-23 11:50:00,
2013-01-23 06:55:00,9.5,-5.9,30.18,WNW,284,2.0,2.0,49,0.00,,,0.00,Wunderground v.1.13,2013-01-23 11:55:00,
2013-01-23 07:00:00,9.3,-5.6,30.18,WNW,284,2.0,3.0,50,0.00,,,0.00,Wunderground v.1.13,2013-01-23 12:00:00,
2013-01-23 07:10:00,9.3,-5.6,30.18,WNW,289,3.0,3.0,50,0.00,,,0.00,Wunderground v.1.13,2013-01-23 12:10:00,
2013-01-23 07:15:00,9.3,-5.6,30.18,West,261,3.0,3.0,50,0.00,,,0.00,Wunderground v.1.13,2013-01-23 12:15:00,
2013-01-23 07:25:00,9.3,-5.6,30.18,WSW,247,3.0,6.0,50,0.00,,,0.00,Wunderground v.1.13,2013-01-23 12:25:00,
2013-01-23 07:30:00,9.3,-5.6,30.18,West,265,3.0,3.0,50,0.00,,,0.00,Wunderground v.1.13,2013-01-23 12:30:00,
2013-01-23 07:35:00,9.3,-5.2,30.19,West,265,2.0,2.0,51,0.00,,,0.00,Wunderground v.1.13,2013-01-23 12:35:00,
2013-01-23 07:45:00,9.3,-5.2,30.19,WNW,285,2.0,2.0,51,0.00,,,0.00,Wunderground v.1.13,2013-01-23 12:45:00,
2013-01-23 07:50:00,9.3,-5.2,30.19,West,281,2.0,2.0,51,0.00,,,0.00,Wunderground v.1.13,2013-01-23 12:50:00,
2013-01-23 07:55:00,9.3,-5.2,30.19,West,281,2.0,2.0,51,0.00,,,0.00,Wunderground v.1.13,2013-01-23 12:55:00,
2013-01-23 08:00:00,9.3,-5.2,30.19,WNW,298,2.0,3.0,51,0.00,,,0.00,Wunderground v.1.13,2013-01-23 13:00:00,
2013-01-23 08:10:00,9.7,-4.8,30.19,WNW,282,3.0,3.0,51,0.00,,,0.00,Wunderground v.1.13,2013-01-23 13:10:00,
2013-01-23 08:20:00,9.9,-4.6,30.20,West,278,2.0,2.0,51,0.00,,,0.00,Wunderground v.1.13,2013-01-23 13:20:00,
2013-01-23 08:25:00,10.0,-4.6,30.20,West,270,2.0,2.0,51,0.00,,,0.00,Wunderground v.1.13,2013-01-23 13:25:00,
2013-01-23 08:30:00,10.0,-5.0,30.20,West,261,3.0,6.0,50,0.00,,,0.00,Wunderground v.1.13,2013-01-23 13:30:00,
2013-01-23 08:40:00,10.2,-4.8,30.20,WNW,285,3.0,4.0,50,0.00,,,0.00,Wunderground v.1.13,2013-01-23 13:40:00,
2013-01-23 08:45:00,10.2,-5.2,30.20,West,274,3.0,4.0,49,0.00,,,0.00,Wunderground v.1.13,2013-01-23 13:45:00,
2013-01-23 08:50:00,10.5,-4.9,30.20,WSW,254,3.0,3.0,49,0.00,,,0.00,Wunderground v.1.13,2013-01-23 13:50:00,
2013-01-23 08:55:00,10.7,-4.7,30.20,North,353,2.0,2.0,49,0.00,,,0.00,Wunderground v.1.13,2013-01-23 13:55:00,
2013-01-23 09:05:00,11.2,-4.7,30.20,WSW,258,2.0,3.0,48,0.00,,,0.00,Wunderground v.1.13,2013-01-23 14:05:00,
2013-01-23 09:10:00,11.2,-5.1,30.20,West,272,3.0,3.0,47,0.00,,,0.00,Wunderground v.1.13,2013-01-23 14:10:00,
2013-01-23 09:15:00,11.6,-4.8,30.20,WNW,284,3.0,3.0,47,0.00,,,0.00,Wunderground v.1.13,2013-01-23 14:15:00,
2013-01-23 09:25:00,11.9,-4.9,30.20,West,272,4.0,4.0,46,0.00,,,0.00,Wunderground v.1.13,2013-01-23 14:25:00,
2013-01-23 09:30:00,12.3,-4.1,30.20,WNW,282,5.0,5.0,47,0.00,,,0.00,Wunderground v.1.13,2013-01-23 14:30:00,
2013-01-23 09:35:00,12.3,-5.0,30.20,West,281,4.0,5.0,45,0.00,,,0.00,Wunderground v.1.13,2013-01-23 14:35:00,
2013-01-23 09:45:00,12.4,-5.9,30.20,West,277,6.0,6.0,43,0.00,,,0.00,Wunderground v.1.13,2013-01-23 14:45:00,
2013-01-23 09:50:00,12.8,-6.0,30.20,West,271,4.0,4.0,42,0.00,,,0.00,Wunderground v.1.13,2013-01-23 14:50:00,
2013-01-23 09:55:00,12.9,-5.4,30.20,WNW,288,4.0,4.0,43,0.00,,,0.00,Wunderground v.1.13,2013-01-23 14:55:00,
2013-01-23 10:05:00,12.9,-6.4,30.21,West,264,5.0,7.0,41,0.00,,,0.00,Wunderground v.1.13,2013-01-23 15:05:00,
2013-01-23 10:10:00,13.1,-6.2,30.21,West,272,6.0,6.0,41,0.00,,,0.00,Wunderground v.1.13,2013-01-23 15:10:00,
2013-01-23 10:15:00,13.5,-6.4,30.21,West,267,4.0,4.0,40,0.00,,,0.00,Wunderground v.1.13,2013-01-23 15:15:00,
2013-01-23 10:25:00,13.6,-6.3,30.21,West,264,5.0,5.0,40,0.00,,,0.00,Wunderground v.1.13,2013-01-23 15:25:00,
2013-01-23 10:30:00,14.0,-5.9,30.21,West,280,5.0,6.0,40,0.00,,,0.00,Wunderground v.1.13,2013-01-23 15:30:00,
2013-01-23 10:40:00,14.0,-6.5,30.21,East,90,3.0,3.0,39,0.00,,,0.00,Wunderground v.1.13,2013-01-23 15:40:00,
2013-01-23 10:45:00,14.3,-7.3,30.21,SW,223,2.0,6.0,37,0.00,,,0.00,Wunderground v.1.13,2013-01-23 15:45:00,
2013-01-23 10:50:00,14.1,-7.4,30.20,West,277,3.0,4.0,37,0.00,,,0.00,Wunderground v.1.13,2013-01-23 15:50:00,
2013-01-23 10:55:00,14.3,-6.7,30.20,West,268,4.0,4.0,38,0.00,,,0.00,Wunderground v.1.13,2013-01-23 15:55:00,
2013-01-23 11:00:00,14.6,-7.0,30.20,West,261,3.0,3.0,37,0.00,,,0.00,Wunderground v.1.13,2013-01-23 16:00:00,
2013-01-23 11:05:00,14.4,-7.7,30.20,West,272,3.0,6.0,36,0.00,,,0.00,Wunderground v.1.13,2013-01-23 16:05:00,
2013-01-23 11:10:00,14.1,-8.0,30.20,WNW,285,4.0,5.0,36,0.00,,,0.00,Wunderground v.1.13,2013-01-23 16:10:00,
2013-01-23 11:20:00,14.3,-7.3,30.19,West,263,4.0,5.0,37,0.00,,,0.00,Wunderground v.1.13,2013-01-23 16:20:00,
2013-01-23 11:25:00,14.9,-6.7,30.19,West,280,4.0,6.0,37,0.00,,,0.00,Wunderground v.1.13,2013-01-23 16:25:00,
2013-01-23 11:30:00,15.1,-7.1,30.19,WSW,253,4.0,4.0,36,0.00,,,0.00,Wunderground v.1.13,2013-01-23 16:30:00,
2013-01-23 11:35:00,14.9,-7.3,30.18,SW,226,5.0,5.0,36,0.00,,,0.00,Wunderground v.1.13,2013-01-23 16:35:00,
2013-01-23 11:45:00,14.8,-8.0,30.18,NW,304,6.0,7.0,35,0.00,,,0.00,Wunderground v.1.13,2013-01-23 16:45:00,
2013-01-23 11:50:00,15.1,-7.7,30.17,West,268,5.0,11.0,35,0.00,,,0.00,Wunderground v.1.13,2013-01-23 16:50:00,
2013-01-23 11:55:00,15.2,-9.4,30.17,West,268,4.0,6.0,32,0.00,,,0.00,Wunderground v.1.13,2013-01-23 16:55:00,
2013-01-23 12:00:00,15.4,-8.6,30.17,WSW,257,5.0,5.0,33,0.00,,,0.00,Wunderground v.1.13,2013-01-23 17:00:00,
2013-01-23 12:05:00,15.7,-9.0,30.16,WNW,284,5.0,6.0,32,0.00,,,0.00,Wunderground v.1.13,2013-01-23 17:05:00,
2013-01-23 12:15:00,15.4,-8.0,30.16,WNW,295,5.0,5.0,34,0.00,,,0.00,Wunderground v.1.13,2013-01-23 17:15:00,
2013-01-23 12:20:00,15.9,-7.6,30.15,WNW,295,4.0,4.0,34,0.00,,,0.00,Wunderground v.1.13,2013-01-23 17:20:00,
2013-01-23 12:25:00,15.7,-7.8,30.15,West,260,4.0,4.0,34,0.00,,,0.00,Wunderground v.1.13,2013-01-23 17:25:00,
2013-01-23 12:34:00,16.5,-7.7,30.14,WSW,258,5.0,5.0,33,0.00,,,0.00,Wunderground v.1.13,2013-01-23 17:34:00,
2013-01-23 12:40:00,16.7,-6.9,30.14,WSW,256,4.0,8.0,34,0.00,,,0.00,Wunderground v.1.13,2013-01-23 17:40:00,
2013-01-23 12:45:00,16.7,-7.5,30.14,West,281,5.0,10.0,33,0.00,,,0.00,Wunderground v.1.13,2013-01-23 17:45:00,
2013-01-23 12:50:00,16.4,-7.7,30.14,West,265,5.0,5.0,33,0.00,,,0.00,Wunderground v.1.13,2013-01-23 17:50:00,
2013-01-23 12:59:00,16.2,-7.3,30.14,West,277,4.0,8.0,34,0.00,,,0.00,Wunderground v.1.13,2013-01-23 17:59:00,
2013-01-23 13:05:00,16.1,-8.0,30.14,West,260,5.0,5.0,33,0.00,,,0.00,Wunderground v.1.13,2013-01-23 18:05:00,
2013-01-23 13:10:00,16.4,-6.5,30.14,West,267,3.0,3.0,35,0.00,,,0.00,Wunderground v.1.13,2013-01-23 18:10:00,
2013-01-23 13:15:00,16.5,-7.7,30.14,West,272,2.0,7.0,33,0.00,,,0.00,Wunderground v.1.13,2013-01-23 18:15:00,
2013-01-23 13:20:00,16.2,-7.9,30.13,SSW,212,3.0,3.0,33,0.00,,,0.00,Wunderground v.1.13,2013-01-23 18:20:00,
2013-01-23 13:25:00,16.7,-7.5,30.13,WNW,284,3.0,3.0,33,0.00,,,0.00,Wunderground v.1.13,2013-01-23 18:25:00,
2013-01-23 13:30:00,17.0,-7.2,30.13,ESE,123,2.0,2.0,33,0.00,,,0.00,Wunderground v.1.13,2013-01-23 18:30:00,
2013-01-23 13:35:00,16.9,-7.3,30.12,SSW,212,3.0,3.0,33,0.00,,,0.00,Wunderground v.1.13,2013-01-23 18:35:00,
2013-01-23 13:44:00,15.9,-7.0,30.12,WNW,287,4.0,4.0,35,0.00,,,0.00,Wunderground v.1.13,2013-01-23 18:44:00,
2013-01-23 13:50:00,16.1,-6.8,30.12,NNW,340,3.0,3.0,35,0.00,,,0.00,Wunderground v.1.13,2013-01-23 18:50:00,
2013-01-23 13:55:00,16.1,-7.4,30.12,West,281,2.0,4.0,34,0.00,,,0.00,Wunderground v.1.13,2013-01-23 18:55:00,
2013-01-23 14:00:00,16.1,-7.4,30.12,West,264,3.0,5.0,34,0.00,,,0.00,Wunderground v.1.13,2013-01-23 19:00:00,
2013-01-23 14:05:00,16.2,-7.9,30.12,WSW,253,4.0,6.0,33,0.00,,,0.00,Wunderground v.1.13,2013-01-23 19:05:00,
2013-01-23 14:14:00,16.1,-8.0,30.12,WSW,250,5.0,5.0,33,0.00,,,0.00,Wunderground v.1.13,2013-01-23 19:14:00,
2013-01-23 14:19:00,16.2,-7.3,30.12,NW,320,5.0,5.0,34,0.00,,,0.00,Wunderground v.1.13,2013-01-23 19:19:00,
2013-01-23 14:25:00,16.5,-7.0,30.12,NNW,337,3.0,3.0,34,0.00,,,0.00,Wunderground v.1.13,2013-01-23 19:25:00,
2013-01-23 14:30:00,16.9,-6.1,30.12,West,278,1.0,5.0,35,0.00,,,0.00,Wunderground v.1.13,2013-01-23 19:30:00,
2013-01-23 14:35:00,16.9,-7.3,30.12,West,280,2.0,6.0,33,0.00,,,0.00,Wunderground v.1.13,2013-01-23 19:35:00,
2013-01-23 14:40:00,16.7,-6.9,30.12,NW,325,2.0,2.0,34,0.00,,,0.00,Wunderground v.1.13,2013-01-23 19:40:00,
2013-01-23 14:45:00,16.7,-7.5,30.12,WNW,294,2.0,2.0,33,0.00,,,0.00,Wunderground v.1.13,2013-01-23 19:45:00,
2013-01-23 14:50:00,17.0,-6.6,30.12,SW,227,1.0,2.0,34,0.00,,,0.00,Wunderground v.1.13,2013-01-23 19:50:00,
2013-01-23 14:59:00,17.5,-7.4,30.12,WNW,301,2.0,2.0,32,0.00,,,0.00,Wunderground v.1.13,2013-01-23 19:59:00,
2013-01-23 15:05:00,17.8,-7.1,30.12,NNW,329,1.0,1.0,32,0.00,,,0.00,Wunderground v.1.13,2013-01-23 20:05:00,
2013-01-23 15:10:00,17.7,-7.2,30.12,WNW,284,1.0,2.0,32,0.00,,,0.00,Wunderground v.1.13,2013-01-23 20:10:00,
2013-01-23 15:15:00,17.3,-7.6,30.12,West,278,3.0,7.0,32,0.00,,,0.00,Wunderground v.1.13,2013-01-23 20:15:00,
2013-01-23 15:24:00,17.7,-8.5,30.12,West,265,5.0,6.0,30,0.00,,,0.00,Wunderground v.1.13,2013-01-23 20:24:00,
2013-01-23 15:29:00,17.7,-7.9,30.12,West,277,5.0,5.0,31,0.00,,,0.00,Wunderground v.1.13,2013-01-23 20:29:00,
2013-01-23 15:35:00,17.7,-7.9,30.12,West,272,4.0,4.0,31,0.00,,,0.00,Wunderground v.1.13,2013-01-23 20:35:00,
2013-01-23 15:40:00,17.3,-8.2,30.12,WNW,301,4.0,5.0,31,0.00,,,0.00,Wunderground v.1.13,2013-01-23 20:40:00,
2013-01-23 15:45:00,17.3,-7.6,30.12,WNW,284,5.0,6.0,32,0.00,,,0.00,Wunderground v.1.13,2013-01-23 20:45:00,
2013-01-23 15:50:00,17.3,-6.9,30.13,NNW,343,4.0,4.0,33,0.00,,,0.00,Wunderground v.1.13,2013-01-23 20:50:00,
2013-01-23 15:55:00,17.2,-6.4,30.13,WSW,250,3.0,3.0,34,0.00,,,0.00,Wunderground v.1.13,2013-01-23 20:55:00,
2013-01-23 16:00:00,17.2,-5.8,30.13,WNW,299,2.0,3.0,35,0.00,,,0.00,Wunderground v.1.13,2013-01-23 21:00:00,
2013-01-23 16:05:00,16.9,-6.1,30.13,West,278,2.0,4.0,35,0.00,,,0.00,Wunderground v.1.13,2013-01-23 21:05:00,
2013-01-23 16:10:00,16.9,-6.1,30.13,North,350,2.0,2.0,35,0.00,,,0.00,Wunderground v.1.13,2013-01-23 21:10:00,
2013-01-23 16:15:00,16.9,-6.1,30.13,NNW,337,2.0,2.0,35,0.00,,,0.00,Wunderground v.1.13,2013-01-23 21:15:00,
2013-01-23 16:25:00,16.9,-6.1,30.13,West,271,1.0,3.0,35,0.00,,,0.00,Wunderground v.1.13,2013-01-23 21:25:00,
2013-01-23 16:30:00,16.7,-6.3,30.13,West,281,1.0,2.0,35,0.00,,,0.00,Wunderground v.1.13,2013-01-23 21:30:00,
2013-01-23 16:40:00,16.7,-6.9,30.13,WSW,243,3.0,3.0,34,0.00,,,0.00,Wunderground v.1.13,2013-01-23 21:40:00,
2013-01-23 16:45:00,16.5,-8.3,30.13,WNW,284,2.0,5.0,32,0.00,,,0.00,Wunderground v.1.13,2013-01-23 21:45:00,
2013-01-23 16:50:00,16.2,-7.9,30.13,West,280,3.0,3.0,33,0.00,,,0.00,Wunderground v.1.13,2013-01-23 21:50:00,
2013-01-23 16:55:00,16.1,-7.4,30.13,WNW,298,3.0,4.0,34,0.00,,,0.00,Wunderground v.1.13,2013-01-23 21:55:00,
2013-01-23 17:05:00,15.9,-7.0,30.14,West,272,3.0,4.0,35,0.00,,,0.00,Wunderground v.1.13,2013-01-23 22:05:00,
2013-01-23 17:10:00,15.7,-6.0,30.14,WSW,254,3.0,3.0,37,0.00,,,0.00,Wunderground v.1.13,2013-01-23 22:10:00,
2013-01-23 17:15:00,15.7,-6.0,30.14,WSW,258,3.0,3.0,37,0.00,,,0.00,Wunderground v.1.13,2013-01-23 22:15:00,
2013-01-23 17:20:00,15.6,-5.5,30.14,West,264,3.0,3.0,38,0.00,,,0.00,Wunderground v.1.13,2013-01-23 22:20:00,
2013-01-23 17:25:00,15.6,-5.0,30.14,West,263,4.0,5.0,39,0.00,,,0.00,Wunderground v.1.13,2013-01-23 22:25:00,
2013-01-23 17:30:00,15.6,-5.0,30.14,WSW,253,4.0,6.0,39,0.00,,,0.00,Wunderground v.1.13,2013-01-23 22:30:00,
2013-01-23 17:35:00,15.4,-5.2,30.14,WNW,284,3.0,3.0,39,0.00,,,0.00,Wunderground v.1.13,2013-01-23 22:35:00,
2013-01-23 17:45:00,15.6,-6.1,30.14,West,260,5.0,8.0,37,0.00,,,0.00,Wunderground v.1.13,2013-01-23 22:45:00,
2013-01-23 17:50:00,15.6,-6.7,30.15,WNW,284,5.0,5.0,36,0.00,,,0.00,Wunderground v.1.13,2013-01-23 22:50:00,
2013-01-23 17:55:00,15.4,-5.7,30.15,West,281,4.0,4.0,38,0.00,,,0.00,Wunderground v.1.13,2013-01-23 22:55:00,
2013-01-23 18:00:00,15.4,-5.2,30.15,West,261,3.0,3.0,39,0.00,,,0.00,Wunderground v.1.13,2013-01-23 23:00:00,
2013-01-23 18:05:00,15.2,-4.8,30.15,WNW,287,3.0,3.0,40,0.00,,,0.00,Wunderground v.1.13,2013-01-23 23:05:00,
2013-01-23 18:10:00,15.1,-4.4,30.15,West,277,3.0,3.0,41,0.00,,,0.00,Wunderground v.1.13,2013-01-23 23:10:00,
2013-01-23 18:15:00,15.1,-4.4,30.16,West,265,3.0,4.0,41,0.00,,,0.00,Wunderground v.1.13,2013-01-23 23:15:00,
2013-01-23 18:25:00,15.1,-4.9,30.16,West,274,4.0,4.0,40,0.00,,,0.00,Wunderground v.1.13,2013-01-23 23:25:00,
2013-01-23 18:30:00,14.9,-5.1,30.16,West,272,3.0,3.0,40,0.00,,,0.00,Wunderground v.1.13,2013-01-23 23:30:00,
2013-01-23 18:35:00,15.1,-5.5,30.16,West,272,2.0,2.0,39,0.00,,,0.00,Wunderground v.1.13,2013-01-23 23:35:00,
2013-01-23 18:40:00,15.1,-4.9,30.16,West,267,2.0,2.0,40,0.00,,,0.00,Wunderground v.1.13,2013-01-23 23:40:00,
2013-01-23 18:45:00,14.9,-5.1,30.16,WNW,287,3.0,3.0,40,0.00,,,0.00,Wunderground v.1.13,2013-01-23 23:45:00,
2013-01-23 18:50:00,14.9,-4.6,30.16,WNW,284,2.0,2.0,41,0.00,,,0.00,Wunderground v.1.13,2013-01-23 23:50:00,
2013-01-23 18:55:00,14.8,-4.7,30.16,WNW,284,2.0,2.0,41,0.00,,,0.00,Wunderground v.1.13,2013-01-23 23:55:00,
2013-01-23 19:00:00,14.8,-4.7,30.16,West,278,2.0,2.0,41,0.00,,,0.00,Wunderground v.1.13,2013-01-24 00:00:00,
2013-01-23 19:10:00,14.8,-4.2,30.16,West,277,2.0,3.0,42,0.00,,,0.00,Wunderground v.1.13,2013-01-24 00:10:00,
2013-01-23 19:15:00,14.8,-4.2,30.16,West,280,2.0,3.0,42,0.00,,,0.00,Wunderground v.1.13,2013-01-24 00:15:00,
2013-01-23 19:20:00,14.8,-4.2,30.16,West,277,3.0,3.0,42,0.00,,,0.00,Wunderground v.1.13,2013-01-24 00:20:00,
2013-01-23 19:25:00,14.8,-4.2,30.16,West,265,3.0,3.0,42,0.00,,,0.00,Wunderground v.1.13,2013-01-24 00:25:00,
2013-01-23 19:35:00,14.6,-4.9,30.16,West,265,3.0,3.0,41,0.00,,,0.00,Wunderground v.1.13,2013-01-24 00:35:00,
2013-01-23 19:40:00,14.6,-4.9,30.16,WSW,253,3.0,3.0,41,0.00,,,0.00,Wunderground v.1.13,2013-01-24 00:40:00,
2013-01-23 19:45:00,14.6,-4.9,30.16,NW,306,3.0,5.0,41,0.00,,,0.00,Wunderground v.1.13,2013-01-24 00:45:00,
2013-01-23 19:50:00,14.6,-5.4,30.16,West,267,3.0,3.0,40,0.00,,,0.00,Wunderground v.1.13,2013-01-24 00:50:00,
2013-01-23 19:55:00,14.6,-5.4,30.16,WNW,282,3.0,6.0,40,0.00,,,0.00,Wunderground v.1.13,2013-01-24 00:55:00,
2013-01-23 20:00:00,14.6,-4.9,30.16,West,275,3.0,3.0,41,0.00,,,0.00,Wunderground v.1.13,2013-01-24 01:00:00,
2013-01-23 20:10:00,14.4,-4.6,30.16,West,267,3.0,3.0,42,0.00,,,0.00,Wunderground v.1.13,2013-01-24 01:10:00,
2013-01-23 20:20:00,14.3,-4.2,30.16,West,280,2.0,2.0,43,0.00,,,0.00,Wunderground v.1.13,2013-01-24 01:20:00,
2013-01-23 20:30:00,14.1,-3.9,30.16,West,261,1.0,1.0,44,0.00,,,0.00,Wunderground v.1.13,2013-01-24 01:30:00,
2013-01-23 20:35:00,14.1,-3.9,30.16,West,261,1.0,3.0,44,0.00,,,0.00,Wunderground v.1.13,2013-01-24 01:35:00,
2013-01-23 20:40:00,14.0,-3.9,30.16,WNW,282,1.0,1.0,44,0.00,,,0.00,Wunderground v.1.13,2013-01-24 01:40:00,
2013-01-23 20:50:00,14.0,-3.9,30.15,West,268,1.0,1.0,44,0.00,,,0.00,Wunderground v.1.13,2013-01-24 01:50:00,
2013-01-23 20:55:00,13.8,-4.1,30.15,West,268,1.0,1.0,44,0.00,,,0.00,Wunderground v.1.13,2013-01-24 01:55:00,
2013-01-23 21:00:00,13.8,-4.1,30.15,West,270,1.0,1.0,44,0.00,,,0.00,Wunderground v.1.13,2013-01-24 02:00:00,
2013-01-23 21:10:00,13.6,-4.3,30.15,West,270,0.0,0.0,44,0.00,,,0.00,Wunderground v.1.13,2013-01-24 02:10:00,
2013-01-23 21:15:00,13.6,-3.8,30.15,WNW,295,0.0,2.0,45,0.00,,,0.00,Wunderground v.1.13,2013-01-24 02:15:00,
2013-01-23 21:20:00,13.6,-4.3,30.15,WSW,251,1.0,1.0,44,0.00,,,0.00,Wunderground v.1.13,2013-01-24 02:20:00,
2013-01-23 21:25:00,13.6,-3.8,30.15,WSW,251,1.0,1.0,45,0.00,,,0.00,Wunderground v.1.13,2013-01-24 02:25:00,
2013-01-23 21:30:00,13.6,-3.8,30.16,West,278,0.0,0.0,45,0.00,,,0.00,Wunderground v.1.13,2013-01-24 02:30:00,
2013-01-23 21:40:00,13.5,-3.9,30.16,West,280,1.0,1.0,45,0.00,,,0.00,Wunderground v.1.13,2013-01-24 02:40:00,
2013-01-23 21:45:00,13.6,-3.4,30.16,West,264,1.0,1.0,46,0.00,,,0.00,Wunderground v.1.13,2013-01-24 02:45:00,
2013-01-23 21:50:00,13.5,-3.5,30.16,West,264,0.0,1.0,46,0.00,,,0.00,Wunderground v.1.13,2013-01-24 02:50:00,
2013-01-23 21:55:00,13.5,-3.5,30.16,West,264,0.0,1.0,46,0.00,,,0.00,Wunderground v.1.13,2013-01-24 02:55:00,
2013-01-23 22:00:00,13.3,-3.2,30.16,West,264,0.0,0.0,47,0.00,,,0.00,Wunderground v.1.13,2013-01-24 03:00:00,
2013-01-23 22:05:00,13.3,-3.2,30.16,West,264,0.0,0.0,47,0.00,,,0.00,Wunderground v.1.13,2013-01-24 03:05:00,
2013-01-23 22:15:00,13.1,-2.9,30.16,West,264,0.0,0.0,48,0.00,,,0.00,Wunderground v.1.13,2013-01-24 03:15:00,
2013-01-23 22:20:00,13.1,-2.9,30.15,West,264,0.0,1.0,48,0.00,,,0.00,Wunderground v.1.13,2013-01-24 03:20:00,
2013-01-23 22:25:00,13.1,-2.9,30.15,West,264,0.0,0.0,48,0.00,,,0.00,Wunderground v.1.13,2013-01-24 03:25:00,
2013-01-23 22:30:00,12.9,-2.7,30.15,West,264,0.0,0.0,49,0.00,,,0.00,Wunderground v.1.13,2013-01-24 03:30:00,
2013-01-23 22:35:00,12.9,-2.7,30.15,West,264,0.0,0.0,49,0.00,,,0.00,Wunderground v.1.13,2013-01-24 03:35:00,
2013-01-23 22:40:00,12.8,-2.4,30.15,West,264,0.0,0.0,50,0.00,,,0.00,Wunderground v.1.13,2013-01-24 03:40:00,
2013-01-23 22:45:00,12.8,-2.4,30.15,West,264,0.0,0.0,50,0.00,,,0.00,Wunderground v.1.13,2013-01-24 03:45:00,
2013-01-23 22:50:00,12.6,-2.1,30.15,West,264,0.0,0.0,51,0.00,,,0.00,Wunderground v.1.13,2013-01-24 03:50:00,
2013-01-23 22:55:00,12.6,-1.7,30.15,West,264,0.0,0.0,52,0.00,,,0.00,Wunderground v.1.13,2013-01-24 03:55:00,
2013-01-23 23:00:00,12.4,-1.9,30.15,West,264,0.0,0.0,52,0.00,,,0.00,Wunderground v.1.13,2013-01-24 04:00:00,
2013-01-23 23:10:00,12.3,-1.6,30.15,West,264,0.0,0.0,53,0.00,,,0.00,Wunderground v.1.13,2013-01-24 04:10:00,
2013-01-23 23:15:00,12.1,-1.4,30.15,West,264,0.0,0.0,54,0.00,,,0.00,Wunderground v.1.13,2013-01-24 04:15:00,
2013-01-23 23:20:00,11.7,-1.4,30.15,West,264,0.0,0.0,55,0.00,,,0.00,Wunderground v.1.13,2013-01-24 04:20:00,
2013-01-23 23:25:00,11.6,-1.1,30.15,West,264,0.0,0.0,56,0.00,,,0.00,Wunderground v.1.13,2013-01-24 04:25:00,
2013-01-23 23:35:00,11.1,-1.6,30.16,West,264,0.0,0.0,56,0.00,,,0.00,Wunderground v.1.13,2013-01-24 04:35:00,
2013-01-23 23:40:00,10.7,-1.6,30.16,West,264,0.0,0.0,57,0.00,,,0.00,Wunderground v.1.13,2013-01-24 04:40:00,
2013-01-23 23:45:00,10.5,-1.8,30.16,West,264,0.0,0.0,57,0.00,,,0.00,Wunderground v.1.13,2013-01-24 04:45:00,
2013-01-23 23:50:00,10.2,-1.7,30.15,West,264,0.0,0.0,58,0.00,,,0.00,Wunderground v.1.13,2013-01-24 04:50:00,
2013-01-23 23:55:00,10.0,-1.9,30.15,West,264,0.0,0.0,58,0.00,,,0.00,Wunderground v.1.13,2013-01-24 04:55:00,